Location: Brno
(49.2000°N, 16.6330°E)
Time: 21:18:54
(UTC+02:00)

BREEZE M DEB (TANK) - Visible Passes

Search period start: 24 April 2014 00:00
Search period end: 04 May 2014 00:00
Orbit: 296 x 12249 km, 49.5° (Epoch: 24 April)

Date Brightness Start Highest point End Pass type
(mag) Time Alt. Az. Time Alt. Az. Time Alt. Az.
24 Apr 7.8 02:08:12 10° WNW 02:41:35 77° SW 04:22:18 10° SSE visible
24 Apr 6.3 21:36:53 10° WSW 21:48:30 82° SSE 22:53:08 10° E visible
25 Apr 7.8 01:43:06 10° WNW 02:13:59 80° SSW 03:55:19 10° SE visible
25 Apr 6.2 21:12:13 10° SW 21:22:59 78° SSE 22:21:34 10° ENE visible
26 Apr 7.7 01:17:59 10° WNW 01:46:26 82° SSW 03:27:50 10° SE visible
26 Apr 6.0 20:47:34 10° SW 20:57:33 74° SE 21:50:17 10° ENE visible
27 Apr 7.7 00:52:50 10° WNW 01:18:57 84° SSW 02:59:50 10° SE visible
27 Apr 8.2 05:03:59 10° WNW 05:46:52 41° WSW 07:05:50 10° SSW visible
27 Apr 5.9 20:22:53 10° SW 20:32:12 69° SE 21:19:24 10° ENE visible
28 Apr 7.6 00:27:40 10° WNW 00:51:34 86° SSW 02:31:15 10° SE visible
28 Apr 8.2 04:37:59 10° WNW 05:20:24 44° WSW 06:42:28 10° SSW visible
28 Apr 5.8 19:58:12 10° SW 20:06:56 63° SE 20:48:57 10° ENE visible
29 Apr 7.5 00:02:28 10° W 00:24:17 88° SSW 02:02:03 10° SE visible
29 Apr 8.1 04:12:04 10° WNW 04:53:39 48° WSW 06:18:33 10° SSW visible
29 Apr 7.3 23:37:15 10° W 23:57:09 89° SSW 01:32:13 10° ESE visible
30 Apr 8.1 03:46:12 10° WNW 04:26:38 52° WSW 05:54:08 10° S visible
30 Apr 7.2 23:12:00 10° W 23:30:08 90° N 01:01:43 10° ESE visible
01 May 8.1 03:20:22 10° WNW 03:59:23 55° WSW 05:29:13 10° S visible
01 May 7.0 22:46:44 10° W 23:03:14 89° N 00:30:33 10° ESE visible
02 May 8.0 02:54:33 10° WNW 03:31:55 59° SW 05:03:51 10° S visible
02 May 6.9 22:21:25 10° W 22:36:28 89° N 23:58:47 10° ESE visible
03 May 8.0 02:28:46 10° WNW 03:04:16 62° SW 04:38:01 10° S visible
03 May 6.7 21:56:05 10° W 22:09:48 89° N 23:26:32 10° E visible
